Temperature
19 19 18 18 18 18 18 17 17 17 17 17 17 17 17 17 16 16 16 16 16 16 16 16 16 16 16 16 16 16 16 15 15 15 15 15 15 15 14 14 14 14 14
19 19 18 18 18 18 18 18 17 17 17 17 17 17 17 16 16 16 16 16 16 16 16 16 16 16 16 16 16 16 15 15 15 15 15 15 14 14 14 14 14 14 14
19 18 18 18 18 18 18 18 17 17 17 17 17 16 16 16 16 16 16 16 16 16 16 16 16 16 16 16 16 15 15 15 15 15 15 15 14 14 14 14 14 14 14
19 19 18 18 18 18 18 18 17 17 17 17 17 16 16 16 16 16 16 16 16 16 16 16 16 16 16 16 15 15 15 15 15 15 15 15 15 14 14 14 14 14 14
19 19 19 18 18 18 18 18 17 17 17 17 17 16 16 16 16 16 16 16 16 16 16 16 16 15 15 15 15 15 15 15 15 15 15 15 15 15 14 13 13 13 13
19 19 19 18 18 18 18 17 17 17 17 17 16 16 16 16 16 16 16 16 16 15 15 16 15 15 15 15 15 15 15 15 15 15 15 15 15 15 14 14 13 13 13
19 19 18 18 18 18 17 17 17 17 17 17 16 16 16 16 16 16 16 16 16 15 15 15 15 15 15 15 15 15 15 15 15 15 15 15 15 15 14 14 14 13 13
18 19 18 18 18 18 17 17 17 17 17 17 16 16 16 16 16 16 16 16 16 15 15 15 15 15 15 15 15 15 15 15 15 15 15 15 15 15 14 14 14 13 13
18 18 18 18 18 18 18 17 17 17 17 17 16 16 16 16 16 16 16 16 16 15 15 15 15 15 15 15 15 15 15 15 15 15 15 15 15 14 14 14 14 14 13
18 18 18 18 18 18 17 17 17 17 17 17 16 16 16 16 16 16 16 16 15 15 15 15 15 15 15 15 14 14 14 14 14 14 14 14 14 14 14 14 14 13 13
18 18 18 18 18 18 17 17 17 17 17 17 16 16 16 16 16 16 15 15 15 15 15 15 15 15 15 15 14 14 14 14 14 14 14 14 14 14 14 14 13 13 13
19 18 18 18 18 17 17 17 17 17 17 16 16 16 16 16 16 16 15 15 15 15 15 15 15 15 15 15 14 14 14 14 14 14 14 14 14 14 14 13 13 13 13
18 18 18 18 18 17 17 17 17 17 17 16 16 16 16 16 16 16 15 15 15 15 15 15 15 15 15 15 14 14 14 14 14 14 14 14 14 14 13 13 13 13 13
18 18 18 18 17 17 17 17 17 17 16 16 16 16 16 16 16 15 15 15 15 15 15 15 15 15 14 14 14 14 14 14 14 14 14 13 13 13 13 13 13 13 13
17 17 17 17 17 17 17 17 17 16 16 16 16 16 16 16 15 15 15 15 15 15 15 15 14 14 14 14 14 14 14 14 14 14 13 13 13 13 13 13 13 13 12
17 17 17 17 17 17 17 17 17 16 16 16 16 16 15 15 15 15 15 15 15 15 15 15 14 14 14 14 14 14 14 13 13 13 13 13 13 13 13 13 12 12 12
17 17 17 17 17 17 17 16 16 16 16 16 16 16 15 15 15 15 15 15 15 15 14 14 14 14 14 14 14 14 13 13 13 13 13 13 13 12 12 12 12 12 11
17 17 17 17 17 17 16 16 16 16 16 16 16 15 15 15 15 15 15 15 15 14 14 14 14 14 14 14 14 13 13 13 13 13 13 12 12 12 12 12 12 11 11
18 17 17 17 17 16 16 16 16 16 16 15 15 15 15 15 15 15 15 15 14 14 14 14 14 14 14 13 13 13 13 13 13 12 12 12 12 12 12 12 11 11 11
18 18 17 17 17 16 16 16 16 16 15 15 15 15 15 15 15 15 14 14 14 14 14 14 14 14 13 13 13 13 13 13 13 12 12 12 12 12 11 11 11 11 11
17 17 17 17 17 16 16 16 15 15 15 15 15 15 15 15 15 14 14 14 14 14 14 14 13 13 13 13 13 13 12 12 12 12 12 12 12 11 11 11 11 11 10
17 17 17 17 16 16 16 16 15 15 15 15 15 15 15 14 14 14 14 14 14 14 13 13 13 13 13 13 12 12 12 12 12 12 12 11 11 11 11 11 10 10 10
17 17 16 16 16 16 16 16 15 15 15 15 15 15 14 14 14 14 14 14 13 13 13 13 13 13 12 12 12 12 12 12 12 11 11 11 11 11 10 10 10 10 10
16 16 16 16 16 16 16 15 15 15 14 14 14 14 14 14 14 14 14 14 13 13 13 13 13 12 12 12 12 12 11 11 11 11 11 11 10 10 10 10 9 9 9
16 16 16 16 16 16 15 15 15 15 14 14 14 14 14 14 13 13 13 13 13 13 13 13 13 12 12 12 12 12 11 11 11 11 11 10 10 10 10 9 9 9 9
16 16 16 15 15 15 15 15 14 14 14 14 14 14 13 13 13 13 13 13 13 12 12 12 12 12 12 12 11 11 11 11 11 11 11 10 10 10 9 9 9 9 8
Wind_Speed
7 7 8 8 8 7 7 6 6 5 5 3 3 3 2 1 2 2 4 5 5 6 6 4 3 4 4 3 3 3 4 3 2 4 3 4 4 3 3 3 3 4 5
5 6 7 8 8 8 7 7 7 6 6 4 3 2 2 1 1 1 4 5 5 5 6 5 3 3 4 4 4 3 3 2 2 3 3 3 4 4 3 3 3 3 4
10 9 8 8 8 9 9 8 7 7 6 5 4 3 3 3 2 2 2 2 5 5 6 5 4 3 4 4 3 4 4 2 2 2 3 3 1 1 4 3 3 3 3
9 9 9 9 9 9 8 7 7 7 6 6 6 6 4 3 2 1 1 1 4 5 5 6 5 3 3 4 3 3 3 4 2 1 2 2 3 2 1 3 3 3 3
11 11 11 11 9 8 8 7 7 7 6 7 7 7 4 3 2 2 2 2 2 3 4 6 5 4 3 4 4 4 3 3 3 2 1 3 2 2 3 0 2 3 3
10 10 10 9 8 8 8 7 7 6 6 7 7 7 7 5 4 3 3 1 1 1 2 5 5 4 3 3 4 4 4 3 3 3 2 2 2 1 2 2 0 1 2
10 10 10 9 9 9 9 9 8 7 6 7 7 7 8 8 7 5 5 4 2 1 1 3 3 3 3 4 4 4 4 4 4 3 2 2 2 2 3 3 1 1 1
10 11 12 11 11 11 10 9 9 7 7 7 7 7 7 6 5 5 5 5 4 3 2 3 3 3 4 4 4 4 3 3 3 3 2 2 1 2 3 3 3 2 2
10 10 10 11 11 11 10 10 9 7 8 8 7 6 7 7 6 5 5 4 3 3 4 4 4 4 4 4 4 3 3 3 3 3 3 2 1 1 1 2 3 4 2
9 9 10 11 11 10 9 9 9 9 7 7 8 7 7 7 7 6 5 5 4 3 5 4 4 4 4 5 4 3 3 4 2 2 3 2 1 2 2 2 2 2 3
10 10 10 10 10 9 9 8 8 7 7 7 7 7 6 6 6 6 6 5 4 5 5 5 4 4 4 4 4 3 3 4 3 2 3 2 2 2 2 2 2 2 3
9 9 9 9 9 10 9 8 8 8 7 7 7 7 6 6 6 6 5 5 5 5 5 5 5 4 4 4 5 4 4 4 3 2 3 2 2 2 2 2 2 2 2
7 7 7 9 10 10 10 9 8 8 7 7 7 7 7 7 7 6 5 5 5 5 5 5 5 5 4 4 4 5 4 4 3 3 3 2 3 2 2 3 3 2 3
7 7 7 8 9 9 10 9 8 8 8 7 8 8 8 8 7 6 5 5 6 6 5 5 5 5 5 5 5 5 4 4 3 3 3 2 3 3 3 3 3 3 4
7 8 8 8 8 8 8 8 8 7 8 8 8 8 7 6 6 5 5 5 5 6 6 6 5 5 5 4 5 5 5 5 4 3 2 3 4 4 4 4 4 4 4
7 8 8 8 8 8 8 8 7 7 8 8 8 7 7 7 6 6 5 5 5 5 6 6 5 5 4 6 8 7 5 5 4 3 2 3 3 5 6 6 6 6 5
7 8 9 9 9 8 8 9 8 7 8 8 7 7 8 7 7 6 6 6 5 5 5 5 5 5 5 8 8 8 6 5 4 4 3 3 3 4 3 5 6 4 4
8 8 8 8 7 7 7 7 7 7 7 7 7 8 8 7 6 6 6 6 5 5 5 5 5 5 5 7 9 9 6 5 4 4 4 4 2 3 4 4 4 3 2
8 8 8 7 7 7 7 7 7 7 7 7 7 8 8 8 7 7 6 5 6 5 4 5 5 5 4 7 9 9 5 5 4 3 3 4 3 4 6 5 4 3 2
6 7 7 6 7 7 7 8 7 7 8 8 8 7 7 8 8 8 6 5 5 5 5 4 4 5 5 7 9 9 5 5 3 2 2 4 4 5 6 5 4 3 0
5 6 7 7 7 7 8 8 8 8 8 7 7 7 7 7 7 6 5 6 6 6 5 4 3 3 5 6 9 9 5 5 4 3 2 1 5 5 6 5 4 4 3
5 6 7 7 6 8 9 8 8 7 6 7 7 7 6 6 6 6 5 6 7 6 5 4 2 1 2 5 6 8 7 7 5 4 3 3 5 5 5 4 4 5 5
5 5 6 7 6 8 9 10 8 7 7 7 7 7 6 5 6 7 7 6 6 6 5 5 4 2 1 3 5 7 7 7 5 4 5 5 4 4 3 4 4 4 3
5 4 6 6 6 7 7 8 8 8 9 8 7 6 6 5 5 5 6 6 6 6 5 5 5 3 2 2 3 3 4 5 4 3 4 5 5 4 4 3 3 2 2
5 5 6 6 7 7 7 7 8 9 9 8 7 6 6 6 5 4 4 5 5 7 8 7 6 6 5 6 8 7 5 5 5 5 3 3 2 2 1 1 1 1 1
5 5 5 5 5 6 6 6 7 9 9 8 7 6 5 5 5 5 3 2 3 5 7 7 7 5 6 8 9 8 7 8 9 6 4 3 3 3 3 2 1 1 1
Wind_Direction
199 182 174 171 166 164 160 159 152 148 133 119 114 110 105 80 71 92 97 98 103 111 111 108 98 100 105 108 109 104 84 68 91 81 48 24 30 38 37 57 67 71 75
190 181 172 167 169 171 170 165 161 158 152 146 142 140 132 115 106 79 82 91 104 113 121 120 120 117 107 96 95 101 97 69 84 117 97 39 7 7 15 29 61 67 73
187 183 176 174 171 173 176 176 174 163 157 144 122 103 77 60 50 50 53 67 100 106 117 119 121 131 121 121 116 121 121 113 45 91 134 135 193 329 352 16 33 55 70
185 183 180 177 179 182 177 172 173 167 163 150 145 144 140 142 176 167 125 72 96 107 117 122 122 127 125 126 130 123 126 125 109 36 63 128 151 143 4 352 4 32 56
187 185 185 179 176 174 171 173 168 169 169 160 157 153 146 155 155 135 112 86 74 98 121 130 127 125 127 128 119 109 108 120 132 124 101 82 73 98 139 171 347 12 18
189 186 184 170 167 166 164 169 168 174 172 164 163 161 159 158 150 151 146 135 78 60 98 121 123 125 128 130 125 118 115 115 110 106 108 124 119 131 130 152 216 19 354
185 182 179 173 170 171 172 172 171 178 177 170 170 171 170 169 171 175 171 160 145 145 148 115 118 124 133 134 125 114 110 117 115 113 110 114 141 156 141 139 148 82 352
184 185 183 179 177 176 175 173 173 179 180 177 178 178 174 171 177 179 173 172 172 183 170 140 133 130 129 124 116 111 113 111 111 107 113 107 111 136 147 151 143 97 23
188 187 183 181 178 178 178 178 175 181 185 181 177 176 174 171 172 174 170 173 177 176 158 143 136 128 126 123 119 117 124 116 111 117 113 101 93 117 125 138 148 145 141
188 186 185 184 183 181 178 175 174 180 184 177 175 176 174 171 169 167 172 173 169 162 151 149 144 139 136 131 126 123 128 116 113 122 104 88 92 91 92 120 111 128 147
188 188 186 184 180 174 172 175 176 176 180 178 174 170 174 172 165 169 179 175 167 164 156 156 150 144 142 137 128 129 118 117 108 105 109 95 90 98 95 92 90 93 114
186 184 179 174 174 175 176 179 179 179 182 178 170 168 168 163 162 171 176 169 166 165 159 151 147 146 139 136 135 136 130 127 120 111 103 93 92 87 91 93 90 95 109
179 175 170 174 180 180 179 180 179 180 179 170 164 161 162 162 167 169 165 163 159 152 148 142 144 139 134 130 132 134 134 130 127 126 122 120 110 91 91 96 94 88 92
173 171 174 179 182 182 179 177 181 179 171 163 163 166 172 174 171 165 163 164 158 150 145 139 141 139 135 131 128 123 125 120 115 119 121 123 130 137 129 117 119 109 97
175 180 182 181 176 177 178 176 179 177 170 163 164 173 173 167 158 156 156 152 151 151 145 137 136 133 133 143 140 133 131 125 114 101 102 111 118 125 127 131 134 125 114
188 189 186 180 178 178 177 174 176 176 168 165 170 168 160 156 155 154 144 139 141 143 139 140 142 138 149 153 151 143 137 137 133 124 109 97 88 96 99 118 126 134 136
190 191 189 187 184 181 176 178 179 171 164 164 165 164 160 158 159 153 142 141 146 143 140 145 142 143 152 154 151 149 141 136 140 140 134 123 99 88 91 93 89 91 119
191 191 190 187 181 174 170 172 168 164 162 161 163 165 161 158 153 149 151 148 143 143 146 150 151 146 154 150 147 141 127 122 125 131 136 132 124 118 115 106 89 73 67
192 188 186 182 173 169 167 160 161 161 161 167 169 167 162 159 158 161 163 154 145 144 146 149 149 148 153 147 144 135 126 120 118 122 128 136 140 140 124 112 106 81 38
184 180 170 163 166 172 161 157 162 164 172 177 175 167 164 164 169 170 162 151 148 150 147 143 153 158 160 154 147 139 132 129 129 116 122 136 139 138 133 129 126 121 74
170 170 161 166 175 169 159 162 166 178 182 171 162 160 164 167 167 160 154 148 144 141 144 143 150 159 164 163 155 149 148 153 149 145 153 153 140 130 133 132 141 152 136
155 165 164 167 169 165 164 169 181 181 160 156 157 157 160 165 159 155 154 151 147 146 149 145 143 159 169 165 166 161 162 159 156 168 175 160 145 134 131 128 128 121 106
157 161 165 164 166 170 171 176 183 164 153 152 158 159 158 159 159 161 159 155 155 158 164 163 170 182 174 165 160 159 158 158 159 167 163 152 142 131 117 113 118 114 106
163 157 153 162 173 177 176 178 171 161 158 160 162 160 158 156 156 161 163 162 165 167 171 174 176 174 163 162 158 159 155 150 147 144 141 133 121 111 103 91 89 106 131
171 162 161 174 183 178 176 173 163 158 159 163 165 163 163 163 160 159 165 171 182 184 179 183 180 173 184 198 176 165 170 169 161 133 110 107 110 113 92 80 83 97 106
168 165 167 174 180 174 175 174 169 166 163 164 165 165 164 164 160 154 131 88 155 174 179 176 174 185 184 169 167 167 164 158 147 130 140 156 162 166 171 166 163 153 170
Height
1531 1533 1535 1537 1539 1541 1543 1545 1546 1547 1549 1550 1551 1552 1553 1554 1555 1556 1556 1557 1558 1558 1559 1559 1559 1560 1560 1560 1561 1561 1562 1562 1562 1562 1562 1563 1562 1562 1561 1560 1559 1558 1557
1530 1532 1534 1536 1538 1540 1542 1543 1545 1546 1548 1550 1551 1552 1553 1554 1555 1556 1556 1557 1558 1558 1558 1559 1559 1560 1560 1561 1561 1561 1561 1562 1562 1563 1562 1563 1564 1562 1562 1561 1560 1559 1558
1527 1529 1532 1534 1536 1538 1540 1542 1544 1546 1547 1549 1550 1551 1553 1553 1554 1555 1556 1557 1557 1558 1558 1559 1559 1560 1560 1560 1561 1561 1561 1562 1562 1562 1563 1563 1562 1563 1563 1562 1561 1560 1559
1525 1527 1529 1532 1534 1536 1539 1541 1542 1544 1546 1547 1549 1550 1551 1552 1553 1554 1555 1556 1557 1558 1558 1559 1559 1560 1560 1560 1560 1561 1561 1562 1562 1562 1562 1563 1562 1562 1563 1563 1561 1561 1560
1522 1524 1527 1529 1532 1535 1537 1539 1541 1543 1544 1546 1547 1549 1550 1552 1553 1554 1555 1556 1556 1557 1558 1558 1559 1559 1559 1560 1560 1561 1561 1561 1562 1562 1562 1562 1562 1562 1562 1561 1562 1561 1560
1519 1522 1525 1527 1530 1533 1535 1537 1539 1541 1543 1544 1546 1547 1549 1550 1552 1553 1554 1555 1555 1556 1557 1558 1558 1559 1559 1559 1560 1560 1561 1561 1561 1562 1562 1562 1562 1561 1561 1561 1561 1560 1560
1516 1519 1522 1525 1527 1530 1533 1535 1537 1539 1541 1543 1544 1546 1548 1549 1550 1551 1552 1553 1554 1555 1556 1557 1558 1558 1559 1559 1560 1560 1560 1561 1561 1561 1562 1562 1561 1561 1561 1561 1560 1560 1560
1513 1516 1518 1521 1524 1527 1530 1532 1535 1537 1539 1541 1543 1545 1546 1548 1549 1550 1551 1552 1553 1554 1555 1556 1557 1558 1558 1559 1559 1560 1560 1561 1561 1561 1561 1561 1561 1561 1560 1560 1560 1559 1559
1510 1513 1516 1519 1521 1524 1527 1530 1533 1535 1537 1539 1541 1543 1545 1546 1548 1549 1550 1551 1552 1553 1554 1555 1556 1557 1557 1558 1559 1559 1560 1560 1560 1561 1561 1560 1560 1560 1560 1560 1559 1559 1558
1507 1510 1513 1516 1519 1522 1525 1528 1531 1533 1535 1538 1539 1541 1543 1544 1546 1548 1549 1550 1551 1552 1553 1554 1555 1556 1557 1558 1558 1559 1559 1559 1560 1560 1560 1560 1560 1559 1559 1559 1559 1558 1558
1504 1507 1510 1513 1516 1519 1523 1526 1528 1531 1534 1536 1538 1539 1541 1543 1544 1546 1547 1549 1550 1551 1552 1553 1554 1555 1556 1557 1557 1558 1558 1559 1559 1559 1559 1559 1559 1559 1559 1558 1558 1558 1557
1502 1504 1507 1511 1514 1517 1520 1523 1526 1529 1531 1534 1535 1537 1539 1541 1542 1544 1546 1548 1549 1550 1551 1552 1553 1554 1555 1556 1557 1557 1558 1558 1558 1558 1558 1558 1558 1558 1558 1557 1557 1557 1556
1501 1503 1506 1508 1511 1514 1517 1521 1524 1526 1529 1531 1533 1535 1537 1539 1541 1542 1544 1546 1547 1549 1550 1551 1552 1553 1554 1555 1556 1556 1557 1557 1557 1558 1558 1558 1558 1557 1557 1557 1557 1556 1556
1499 1502 1504 1506 1509 1512 1515 1518 1521 1524 1527 1529 1531 1533 1535 1537 1539 1541 1543 1544 1546 1547 1548 1549 1551 1552 1553 1554 1554 1555 1556 1556 1557 1557 1557 1557 1557 1557 1557 1556 1556 1556 1555
1498 1500 1502 1504 1506 1509 1512 1515 1518 1522 1524 1527 1529 1531 1533 1536 1537 1539 1541 1543 1544 1546 1547 1548 1550 1551 1552 1553 1554 1554 1555 1555 1556 1556 1556 1556 1556 1556 1556 1556 1555 1555 1555
1496 1498 1500 1502 1504 1507 1510 1513 1516 1519 1522 1524 1527 1529 1531 1534 1536 1538 1539 1541 1543 1544 1546 1547 1548 1549 1550 1552 1553 1554 1554 1555 1555 1555 1555 1555 1556 1555 1555 1555 1555 1555 1554
1494 1496 1498 1499 1501 1504 1507 1511 1513 1517 1519 1522 1525 1527 1529 1531 1534 1536 1538 1539 1541 1542 1544 1545 1547 1548 1549 1550 1552 1553 1553 1554 1554 1554 1554 1555 1555 1555 1555 1554 1554 1553 1553
1491 1493 1495 1497 1499 1502 1506 1509 1512 1515 1517 1520 1522 1525 1527 1529 1531 1534 1535 1537 1539 1540 1542 1543 1545 1546 1547 1549 1550 1551 1552 1552 1553 1553 1554 1554 1554 1554 1554 1553 1553 1553 1552
1490 1491 1493 1495 1498 1501 1504 1507 1510 1513 1515 1517 1520 1522 1525 1527 1529 1531 1533 1535 1537 1538 1540 1542 1543 1545 1546 1547 1548 1549 1550 1551 1551 1552 1552 1553 1553 1553 1553 1552 1552 1552 1551
1488 1490 1492 1494 1497 1499 1502 1505 1507 1510 1512 1515 1517 1520 1523 1525 1527 1529 1531 1533 1535 1536 1538 1540 1541 1543 1544 1545 1546 1548 1548 1549 1550 1550 1551 1551 1551 1551 1551 1551 1551 1550 1550
1486 1488 1490 1492 1495 1498 1500 1503 1505 1507 1510 1513 1515 1518 1521 1523 1525 1527 1529 1530 1532 1534 1536 1538 1539 1541 1542 1543 1544 1545 1546 1547 1548 1548 1549 1549 1550 1550 1550 1550 1549 1549 1549
1485 1487 1488 1490 1493 1495 1498 1500 1502 1505 1508 1511 1513 1516 1518 1521 1523 1525 1526 1528 1530 1532 1534 1535 1537 1538 1540 1541 1542 1543 1544 1545 1546 1546 1547 1547 1548 1548 1548 1548 1548 1548 1548
1483 1485 1486 1488 1491 1493 1495 1497 1500 1503 1505 1508 1511 1513 1516 1518 1520 1522 1524 1526 1528 1529 1531 1533 1534 1535 1537 1539 1540 1541 1542 1543 1543 1544 1545 1546 1546 1546 1546 1546 1546 1546 1545
1482 1483 1485 1487 1488 1490 1492 1495 1498 1500 1503 1505 1508 1511 1513 1516 1518 1520 1522 1523 1525 1526 1528 1530 1531 1533 1534 1536 1537 1538 1539 1540 1541 1542 1542 1543 1544 1544 1544 1544 1544 1543 1543
1481 1482 1483 1485 1486 1488 1490 1493 1495 1498 1500 1502 1505 1508 1510 1512 1515 1517 1519 1520 1522 1524 1526 1527 1529 1530 1531 1533 1534 1535 1536 1537 1538 1539 1540 1540 1541 1541 1541 1541 1541 1541 1541
1479 1481 1482 1483 1485 1486 1488 1491 1493 1495 1497 1500 1502 1505 1507 1509 1511 1513 1515 1518 1520 1522 1524 1525 1527 1528 1530 1531 1532 1533 1534 1535 1536 1536 1537 1537 1538 1538 1538 1538 1538 1538 1538